FW3284 Weather Reports


Display with metric or nautical units.
time (UTC)temp
F
wind
direction
speed
MPH
gust
MPH
rain 1hr
in
rain 24hr
in
rain mn
in
humidity
%
barometer
mb
20260901044506 79 96 1.0 2.0 0.00 0.00 0.00 61 1014.8
20260901043041 80 153 0.0 2.0 0.00 0.00 0.00 59 1014.7
20260901041523 80 112 0.0 2.0 0.00 0.00 0.00 59 1014.6
20260901040113 79 132 0.0 2.0 0.00 0.00 0.00 60 1014.7
20260901040003 79 127 0.0 2.0 0.00 0.00 0.00 60 1014.7
20260901034604 79 115 1.0 3.0 0.00 0.00 0.00 61 1014.7
20260901033033 79 168 0.0 2.0 0.00 0.00 0.00 63 1014.7
20260901031521 79 136 0.0 2.0 0.00 0.00 0.00 64 1014.6
20260901030059 80 136 0.0 1.0 0.00 0.00 0.00 63 1014.4
20260901030002 80 136 0.0 1.0 0.00 0.00 0.00 63 1014.5
20260901024550 80 136 0.0 2.0 0.00 0.00 0.00 61 1014.4
20260901023037 81 136 0.0 2.0 0.00 0.00 0.00 61 1014.3
20260901021512 82 124 1.0 2.0 0.00 0.00 0.00 58 1014.0
20260901020052 83 162 0.0 2.0 0.00 0.00 0.00 56 1013.9
20260901014544 84 162 1.0 2.0 0.00 0.00 0.00 54 1013.6
20260901013015 85 162 0.0 1.0 0.00 0.00 0.00 53 1013.4
20260901011606 86 162 0.0 2.0 0.00 0.00 0.00 50 1013.3
20260901011501 86 162 0.0 2.0 0.00 0.00 0.00 50 1013.3
20260901010035 88 174 0.0 3.0 0.00 0.00 0.00 48 1013.2
20260901004521 89 147 0.0 3.0 0.00 0.00 0.00 46 1013.1
20260901003056 89 158 0.0 2.0 0.00 0.00 0.00 47 1013.0
20260901001545 90 170 0.0 2.0 0.00 0.00 0.00 47 1013.0
20260901000033 91 146 0.0 2.0 0.00 0.00 0.00 45 1012.9
20260831234515 92 145 0.0 2.0 0.00 0.00 0.00 44 1012.9
20260831233057 93 124 0.0 3.0 0.00 0.00 0.00 42 1012.9
20260831231535 94 151 0.0 6.0 0.00 0.00 0.00 40 1012.9
20260831230015 95 169 2.0 5.0 0.00 0.00 0.00 39 1013.0
20260831224551 95 196 1.0 5.0 0.00 0.00 0.00 39 1012.9
20260831223036 96 127 1.0 6.0 0.00 0.00 0.00 37 1013.1
20260831221517 98 131 1.0 5.0 0.00 0.00 0.00 36 1013.1
20260831220003 99 172 1.0 4.0 0.00 0.00 0.00 36 1013.2
20260831214543 98 165 2.0 11.0 0.00 0.00 0.00 36 1013.2
20260831213023 99 271 0.0 6.0 0.00 0.00 0.00 34 1013.2
20260831211503 99 155 4.0 8.0 0.00 0.00 0.00 35 1013.2
20260831210044 98 236 1.0 5.0 0.00 0.00 0.00 34 1013.5
20260831204525 100 255 1.0 7.0 0.00 0.00 0.00 33 1013.7
20260831203013 99 106 3.0 10.0 0.00 0.00 0.00 34 1013.7
20260831201547 98 188 2.0 6.0 0.00 0.00 0.00 34 1013.9
20260831200042 98 281 1.0 8.0 0.00 0.00 0.00 34 1014.2
20260831194513 99 260 2.0 5.0 0.00 0.00 0.00 34 1014.3
20260831193051 99 254 1.0 8.0 0.00 0.00 0.00 35 1014.5
20260831191536 98 199 2.0 7.0 0.00 0.00 0.00 34 1014.5
20260831190017 98 270 4.0 11.0 0.00 0.00 0.00 36 1014.6
20260831184601 97 276 1.0 9.0 0.00 0.00 0.00 36 1014.8
20260831184502 97 316 1.0 9.0 0.00 0.00 0.00 35 1014.8
20260831183040 96 248 2.0 9.0 0.00 0.00 0.00 36 1015.0
20260831181526 96 240 2.0 4.0 0.00 0.00 0.00 38 1015.0
20260831180019 95 230 4.0 8.0 0.00 0.00 0.00 40 1015.3
20260831174549 95 239 2.0 7.0 0.00 0.00 0.00 39 1015.5
20260831173026 95 266 1.0 8.0 0.00 0.00 0.00 43 1015.6
20260831171509 93 257 2.0 6.0 0.00 0.00 0.00 46 1015.8
20260831170045 92 258 1.0 5.0 0.00 0.00 0.00 47 1016.1
20260831164540 90 241 2.0 10.0 0.00 0.00 0.00 49 1016.2
20260831163012 89 239 3.0 9.0 0.00 0.00 0.00 50 1016.4
20260831161547 89 257 2.0 11.0 0.00 0.00 0.00 50 1016.4
20260831160025 88 217 3.0 10.0 0.00 0.00 0.00 51 1016.4
20260831154507 88 202 5.0 10.0 0.00 0.00 0.00 51 1016.4
20260831153045 87 259 1.0 14.0 0.00 0.00 0.00 53 1016.3
20260831151525 87 271 2.0 13.0 0.00 0.00 0.00 53 1016.4
20260831150010 86 293 3.0 10.0 0.00 0.00 0.00 56 1016.4
20260831144603 84 236 3.0 7.0 0.00 0.00 0.00 57 1016.3
20260831143029 83 251 4.0 11.0 0.00 0.00 0.00 57 1016.3
20260831141511 83 261 2.0 8.0 0.00 0.00 0.00 58 1016.3
20260831140047 82 261 0.0 4.0 0.00 0.00 0.00 58 1016.2
20260831134527 81 250 2.0 5.0 0.00 0.00 0.00 59 1016.3
20260831133006 80 130 2.0 7.0 0.00 0.00 0.00 59 1016.2
20260831131537 79 252 1.0 5.0 0.00 0.00 0.00 59 1016.1
20260831130020 79 266 0.0 8.0 0.00 0.00 0.00 61 1015.9
20260831124554 77 280 0.0 3.0 0.00 0.00 0.00 62 1015.7
20260831123036 76 174 1.0 4.0 0.00 0.00 0.00 63 1015.5
20260831121511 75 173 0.0 2.0 0.00 0.00 0.00 66 1015.3
20260831120050 73 227 0.0 2.0 0.00 0.00 0.00 67 1015.1
20260831114530 73 156 0.0 2.0 0.00 0.00 0.00 68 1014.9
20260831113007 73 143 0.0 2.0 0.00 0.00 0.00 67 1014.6
20260831111556 73 270 0.0 2.0 0.00 0.00 0.00 67 1014.5
20260831110027 73 291 0.0 2.0 0.00 0.00 0.00 66 1014.4
20260831104509 73 262 0.0 3.0 0.00 0.00 0.00 66 1014.3
20260831103047 73 181 0.0 3.0 0.00 0.00 0.00 66 1014.3
20260831101534 73 158 0.0 3.0 0.00 0.00 0.00 66 1014.3
20260831100007 73 160 0.0 3.0 0.00 0.00 0.00 66 1014.3
20260831094545 74 153 0.0 2.0 0.00 0.00 0.00 65 1014.3
20260831093036 74 172 0.0 2.0 0.00 0.00 0.00 65 1014.3
20260831091508 74 270 1.0 4.0 0.00 0.00 0.00 65 1014.3
20260831090046 74 179 1.0 3.0 0.00 0.00 0.00 65 1014.4
20260831084523 74 167 0.0 2.0 0.00 0.00 0.00 64 1014.2
20260831083004 75 107 0.0 3.0 0.00 0.00 0.00 64 1014.2
20260831081529 75 150 0.0 3.0 0.00 0.00 0.00 63 1014.1
20260831080009 76 171 0.0 3.0 0.00 0.00 0.00 63 1013.9
20260831074549 76 141 1.0 4.0 0.00 0.00 0.00 62 1013.8
20260831073031 77 187 1.0 6.0 0.00 0.00 0.00 61 1014.0
20260831071528 77 191 1.0 6.0 0.00 0.00 0.00 62 1014.0
20260831070045 77 147 1.0 5.0 0.00 0.00 0.00 61 1013.9
20260831064527 77 180 0.0 7.0 0.00 0.00 0.00 61 1014.1
20260831063007 77 180 1.0 6.0 0.00 0.00 0.00 61 1014.1
20260831061547 77 168 1.0 7.0 0.00 0.00 0.00 62 1014.1
20260831060021 78 357 1.0 5.0 0.00 0.00 0.00 61 1014.2
20260831054507 78 140 1.0 6.0 0.00 0.00 0.00 60 1014.1
20260831053047 79 185 1.0 6.0 0.00 0.00 0.00 59 1014.1
20260831051529 79 145 2.0 6.0 0.00 0.00 0.00 58 1014.0
20260831050017 80 170 2.0 9.0 0.00 0.00 0.00 57 1013.9